Vorticity
18 15 21 42 45 36 25 26 27 26 18 -2 -11 -17 -19 -17 -11 -6 -3 -3 -3 -0 3 7 8 9 8 8 8 7 6 5 3 2 1 2 3 4 4 5 4 4 4 4 4 5 5 5 5 5 5 4 4 4 4 5 6 7 8 8 9 9 10 10 11 11 11 11 11
4 7 12 22 22 11 9 34 56 51 29 3 -7 -15 -20 -20 -15 -8 -2 4 7 10 11 11 9 7 6 6 6 6 4 2 2 2 3 4 5 5 6 6 5 5 5 5 6 6 6 6 6 5 5 5 4 4 5 6 7 8 8 9 9 10 10 11 11 11 11 11 11
-8 -2 6 14 9 -7 -18 -12 8 18 22 24 22 17 11 5 2 4 8 12 13 13 11 9 7 7 7 9 5 3 1 0 2 3 4 4 5 5 6 6 6 6 6 6 6 6 6 6 6 6 6 5 5 5 6 8 8 9 9 10 10 10 10 11 11 11 11 11 11
-4 -2 5 13 11 0 -11 -17 -12 -6 2 13 16 21 26 28 25 22 19 18 15 11 8 7 8 7 3 -2 -3 -2 0 2 3 3 3 3 4 4 4 5 5 5 5 6 6 6 6 6 7 7 7 6 6 7 8 9 10 10 11 11 10 10 10 11 10 10 10 10 10
-1 -2 3 10 12 9 4 1 3 4 2 -2 -0 4 11 18 21 19 15 12 8 5 3 3 1 -0 -2 -1 1 3 4 4 4 4 3 3 3 4 4 5 5 5 6 5 5 5 5 6 7 8 8 7 8 9 10 10 10 11 11 11 11 11 10 10 10 10 9 9 9
2 -0 1 5 9 10 9 6 5 6 5 2 -1 -1 -0 1 2 2 1 0 -0 -0 -0 -1 0 2 4 5 6 6 5 5 4 4 4 4 5 6 6 6 6 6 6 6 5 5 6 6 7 8 9 9 10 10 11 11 11 11 11 11 11 10 10 10 9 9 9 9 9
5 3 1 1 4 6 7 6 5 4 3 3 3 2 3 3 3 2 2 2 2 3 3 4 5 5 5 5 5 5 4 3 2 2 3 4 5 6 7 6 6 5 5 5 5 6 6 7 8 9 10 11 11 11 12 12 11 11 11 11 10 10 9 9 9 8 8 8 9
3 3 1 0 0 1 3 4 4 4 3 2 3 3 4 5 5 6 6 5 5 5 5 4 4 4 4 4 3 3 2 1 1 1 2 3 3 3 3 3 2 2 2 4 5 6 7 8 9 10 12 13 13 12 12 12 11 11 11 10 10 9 9 8 8 8 8 8 8
-0 1 1 1 -0 -1 -1 1 2 2 3 2 3 2 2 2 2 3 4 4 4 4 4 4 3 3 3 3 3 3 2 1 1 1 1 2 1 0 0 -0 0 1 2 3 6 8 9 10 12 13 14 14 13 13 12 12 11 11 10 9 9 8 8 8 8 8 8 8 8
-2 -1 1 2 1 1 0 -0 -0 -0 0 1 1 1 0 0 0 0 0 0 2 3 4 4 4 3 2 2 2 2 1 -1 -2 -1 -0 -0 -1 -1 -1 0 1 2 3 5 7 9 11 13 15 16 15 14 13 12 12 11 10 10 9 9 8 8 8 7 8 8 8 8 9
-5 -6 -5 -4 -3 -2 -2 -2 -2 -3 -3 -3 -3 -3 -4 -3 -2 -1 -1 -1 -2 -2 -1 -0 0 -0 -1 -2 -2 -2 -2 -3 -4 -3 -1 1 2 2 3 4 4 4 5 7 9 11 14 16 16 16 15 14 13 12 11 10 9 9 8 8 7 7 7 8 8 8 9 9 9
14 6 -1 -5 -6 -7 -8 -9 -10 -10 -10 -10 -11 -12 -12 -10 -4 1 4 2 -1 -4 -5 -4 -3 -3 -2 -2 -1 0 1 1 2 4 7 10 11 11 10 8 7 7 8 10 13 15 16 17 16 15 14 13 11 10 10 9 8 8 7 7 7 7 7 8 8 9 9 9 9
42 36 29 22 15 9 2 -3 -7 -8 -10 -11 -14 -16 -17 -15 -5 4 8 4 -2 -5 -6 -6 -4 -1 1 4 6 7 7 7 8 9 10 10 9 8 7 6 6 8 11 14 16 17 17 16 15 13 12 11 10 9 8 7 7 7 7 7 7 7 8 8 8 9 9 9 10
31 36 40 42 41 37 32 26 21 15 10 4 -2 -8 -11 -12 -3 5 9 3 -3 -5 -4 -1 3 6 8 10 8 6 3 1 0 -0 -0 -1 0 1 3 6 10 13 15 16 17 16 16 14 13 11 10 9 8 7 7 6 6 6 7 7 8 8 8 9 9 9 9 9 10
13 16 20 24 28 32 36 39 40 40 38 33 26 19 12 7 9 13 16 14 12 13 15 17 15 12 8 5 2 0 -1 -2 -1 -0 1 2 4 7 10 12 14 16 16 16 16 15 14 12 10 9 8 7 7 6 6 6 6 6 7 8 8 9 9 9 9 9 9 10 10
7 9 10 11 12 14 17 21 27 33 38 43 44 43 40 33 28 25 25 26 27 27 24 19 12 6 2 -1 0 2 4 5 6 6 7 8 10 12 13 14 15 15 15 15 14 13 11 9 8 7 6 6 6 6 6 6 7 7 8 8 9 9 10 10 10 10 10 10 10
5 8 10 11 10 9 9 9 11 15 19 25 31 34 34 30 22 16 13 12 11 9 6 1 -1 -3 -2 -2 1 4 6 8 9 10 10 11 12 13 13 14 14 14 14 13 12 10 9 8 7 6 6 5 6 6 7 7 8 8 9 9 10 10 10 10 10 10 11 11 11
4 7 10 12 12 11 9 8 7 7 8 10 12 13 13 11 7 3 0 -2 -3 -4 -5 -6 -5 -4 -2 -1 2 5 7 9 11 12 13 13 13 14 14 14 14 14 13 12 10 9 8 7 7 6 5 5 6 7 8 8 9 9 10 10 11 11 11 11 11 11 11 11 11
4 8 11 13 14 13 11 9 8 8 7 8 8 9 9 9 8 7 6 5 4 3 2 1 2 3 4 5 7 9 11 12 13 13 14 14 14 14 14 15 15 14 12 10 9 8 7 7 6 6 6 6 7 8 9 10 10 11 11 11 11 11 11 12 11 11 11 11 11
6 9 13 16 16 15 13 11 10 9 9 9 10 11 12 13 14 14 15 14 14 13 12 11 11 11 11 12 12 13 13 14 13 13 13 13 14 14 15 14 13 12 10 8 7 6 6 6 7 7 7 8 9 10 11 11 12 12 12 12 12 12 12 12 12 11 11 11 11
9 12 14 16 17 16 15 13 11 10 10 9 10 11 12 14 15 17 18 18 18 18 18 17 16 15 15 14 14 14 14 13 13 13 13 14 15 15 15 13 12 10 8 7 6 6 7 7 8 9 9 10 11 12 13 13 13 13 13 13 13 13 12 12 11 11 11 11 11
12 14 15 16 17 17 16 15 14 12 11 10 10 10 11 12 14 15 17 18 18 18 18 18 17 16 15 15 14 14 13 14 14 14 15 15 16 15 14 12 10 8 7 7 7 7 8 9 10 11 12 13 13 14 14 14 13 13 13 13 13 12 12 12 11 11 11 10 10
14 14 15 15 15 16 16 16 15 14 13 12 11 10 11 11 12 13 14 16 16 17 17 16 16 16 15 15 14 14 14 14 15 16 16 16 14 13 11 10 8 8 7 8 8 9 10 11 12 13 14 14 14 14 14 14 13 13 13 12 12 12 11 11 11 10 10 10 10
14 14 14 14 14 15 15 16 16 16 15 13 12 11 11 11 12 12 13 14 15 15 15 15 15 15 15 14 14 14 14 15 15 15 14 13 11 10 9 7 7 7 8 9 10 11 12 13 13 14 14 14 14 13 13 13 13 13 12 12 11 11 11 11 10 10 10 10 10
14 14 14 13 13 13 14 15 15 16 15 14 13 12 12 12 12 12 13 14 14 14 14 14 15 14 14 14 14 14 15 15 14 13 11 10 8 7 7 6 7 8 9 10 11 12 13 13 13 13 12 12 12 12 12 12 12 12 12 11 11 11 10 10 10 10 10 10 10
13 13 13 13 13 12 13 14 14 15 15 14 14 13 13 12 12 12 13 14 14 14 14 14 14 14 14 14 14 14 14 13 12 10 9 8 7 7 7 7 8 9 10 11 12 13 13 13 12 12 11 11 10 10 10 11 11 11 11 10 10 10 10 10 10 10 10 10 10
13 13 13 13 12 12 12 13 13 14 14 14 14 13 13 12 12 13 13 14 14 14 14 14 14 14 13 13 13 12 11 10 9 8 7 6 7 7 7 8 9 10 11 12 12 13 12 12 11 11 10 9 9 8 8 8 8 9 9 9 9 10 10 10 10 10 10 10 10
12 12 13 13 13 12 12 12 12 13 13 14 13 13 12 12 12 13 14 14 14 14 14 14 13 13 12 12 11 10 9 8 7 6 6 6 6 7 8 9 10 11 11 12 12 12 11 11 10 9 8 8 7 6 6 6 6 7 7 8 8 9 9 10 10 10 10 10 10
11 11 12 13 13 13 12 12 12 13 13 13 12 12 12 12 12 13 14 14 14 14 14 13 12 12 11 10 9 8 7 6 5 5 5 6 7 8 9 10 10 11 11 11 11 10 10 9 8 7 7 6 6 5 4 4 4 5 6 6 7 8 8 9 9 9 10 10 10
10 10 11 12 12 12 13 13 13 12 12 12 12 11 11 12 12 13 14 15 15 14 12 11 10 10 9 8 7 6 6 5 5 5 5 6 7 8 9 10 10 11 11 11 10 9 8 7 7 6 6 6 5 5 4 4 4 4 5 6 7 7 8 8 9 9 9 10 10
10 10 10 10 11 12 13 13 13 12 12 11 11 11 11 12 13 13 14 14 13 12 11 10 10 8 7 6 6 5 5 5 5 5 5 6 7 8 9 10 10 10 10 9 8 7 6 6 6 6 6 6 6 5 5 5 5 5 6 6 7 8 8 8 9 9 10 10 11
11 10 10 10 10 11 12 13 13 12 12 12 11 11 11 12 12 13 13 13 11 11 11 10 9 7 6 5 5 5 4 4 4 5 5 6 7 8 9 9 9 9 8 7 6 6 6 6 6 6 6 7 7 6 6 6 7 7 7 8 8 9 9 9 10 10 10 11 11
12 11 10 10 10 10 11 12 12 12 12 12 11 11 11 11 12 13 13 13 12 11 10 9 7 6 5 5 5 4 4 4 4 5 5 6 7 8 8 8 8 7 6 5 5 5 6 6 7 7 7 8 8 8 8 8 8 9 9 10 10 11 11 11 11 11 11 12 12
13 12 11 10 10 10 10 11 12 12 12 12 11 11 11 11 11 12 13 12 11 10 9 7 6 6 5 4 4 4 4 4 4 5 5 6 7 7 7 7 6 6 5 5 5 6 7 8 8 9 9 9 9 10 10 10 11 11 11 12 12 12 12 13 13 13 13 13 13
13 13 12 12 11 10 10 10 11 11 12 12 11 11 11 11 11 11 11 11 9 9 8 7 6 6 5 5 5 4 4 4 4 5 5 6 6 6 6 6 6 5 5 5 6 7 8 9 10 11 11 11 11 12 12 12 13 13 13 13 13 13 14 14 14 14 14 14 14
12 13 13 13 12 11 10 10 10 11 11 12 12 11 11 11 11 11 10 9 8 8 8 7 6 6 5 5 5 4 4 4 4 5 5 5 6 6 6 6 5 5 5 5 7 8 10 11 12 12 13 13 14 14 14 14 14 14 14 14 14 14 14 14 14 15 15 15 16
12 12 13 13 13 12 11 10 10 10 11 12 12 11 10 10 10 10 9 8 8 8 7 7 6 6 6 5 5 4 4 4 4 4 5 5 5 5 6 6 5 5 5 6 7 9 11 12 13 14 14 15 15 15 15 15 15 14 14 14 14 15 15 15 15 16 16 17 17
11 12 13 13 14 13 13 12 11 11 11 11 11 11 10 9 9 9 9 8 8 7 7 7 6 6 6 5 5 4 4 4 4 4 5 5 5 5 5 5 5 5 5 6 7 9 11 13 13 14 14 15 15 15 15 15 15 15 14 14 14 15 15 16 16 17 18 18 19
11 11 12 13 14 14 14 13 12 11 11 10 11 11 10 10 9 9 8 8 7 7 6 6 6 6 6 6 5 5 4 4 4 4 4 5 5 5 5 5 5 5 5 5 7 9 10 12 13 13 14 14 15 15 15 15 15 15 14 14 15 16 16 17 18 18 19 19 19
11 11 12 13 14 15 15 15 14 13 12 11 11 11 11 10 9 9 8 8 7 7 6 6 7 7 7 6 6 5 5 4 4 4 4 5 5 5 5 5 5 4 4 5 6 8 9 10 11 12 13 13 14 15 15 15 15 15 15 15 16 17 18 19 19 19 19 19 19
12 12 12 12 13 15 16 16 15 14 13 12 11 11 11 11 10 9 8 8 8 7 7 7 7 7 7 7 6 6 5 5 4 4 4 4 5 5 5 4 4 4 4 4 5 6 7 8 9 10 11 12 13 14 14 15 14 15 15 16 17 18 19 20 20 20 19 19 19
Height
3118 3118 3118 3118 3119 3120 3119 3116 3116 3115 3115 3115 3116 3117 3120 3122 3123 3123 3124 3127 3128 3128 3128 3129 3129 3130 3131 3131 3131 3131 3131 3132 3132 3132 3132 3132 3132 3132 3132 3132 3132 3132 3132 3132 3132 3131 3131 3131 3131 3130 3130 3130 3129 3129 3128 3127 3126 3126 3125 3124 3123 3122 3121 3121 3120 3119 3119 3118 3117
3116 3116 3117 3118 3118 3116 3114 3112 3111 3110 3110 3111 3114 3116 3119 3121 3121 3122 3123 3124 3125 3126 3126 3127 3128 3128 3129 3129 3129 3129 3129 3130 3130 3130 3130 3130 3130 3130 3130 3130 3130 3130 3130 3130 3129 3129 3129 3129 3128 3128 3128 3127 3127 3126 3125 3124 3124 3123 3122 3121 3121 3120 3119 3118 3117 3117 3116 3115 3115
3114 3115 3116 3116 3116 3116 3114 3112 3111 3111 3111 3111 3114 3116 3118 3119 3120 3121 3121 3122 3122 3124 3125 3125 3126 3126 3126 3126 3126 3126 3127 3128 3128 3128 3128 3128 3128 3128 3128 3128 3128 3128 3127 3127 3127 3127 3126 3126 3126 3126 3125 3125 3124 3123 3123 3122 3121 3120 3119 3118 3118 3117 3116 3115 3115 3114 3113 3113 3112
3113 3114 3114 3115 3114 3114 3113 3112 3111 3112 3113 3115 3114 3114 3115 3116 3117 3118 3119 3119 3121 3122 3122 3123 3123 3123 3122 3123 3123 3124 3125 3125 3125 3125 3126 3126 3126 3126 3126 3126 3126 3126 3125 3125 3125 3124 3124 3124 3124 3123 3122 3122 3121 3121 3120 3119 3118 3117 3116 3116 3115 3114 3113 3112 3112 3111 3111 3110 3110
3112 3113 3113 3113 3113 3112 3112 3111 3111 3111 3111 3112 3112 3113 3114 3113 3113 3114 3115 3116 3119 3120 3120 3119 3119 3119 3120 3121 3122 3122 3122 3122 3122 3123 3123 3123 3123 3123 3123 3123 3123 3123 3123 3122 3122 3122 3121 3121 3121 3120 3120 3119 3119 3118 3117 3116 3116 3115 3114 3113 3112 3111 3111 3110 3109 3109 3108 3107 3107
3111 3111 3112 3112 3112 3111 3111 3111 3111 3111 3111 3111 3111 3111 3111 3112 3113 3114 3115 3116 3116 3117 3116 3116 3117 3118 3119 3119 3119 3119 3120 3120 3120 3120 3120 3121 3121 3121 3121 3121 3121 3121 3120 3120 3120 3119 3119 3118 3118 3117 3117 3116 3116 3115 3114 3113 3112 3112 3111 3111 3110 3109 3108 3107 3107 3106 3106 3105 3104
3110 3110 3110 3110 3111 3110 3110 3110 3109 3109 3109 3109 3109 3109 3110 3110 3110 3111 3112 3112 3113 3114 3115 3115 3116 3116 3116 3116 3116 3117 3117 3117 3117 3117 3118 3118 3118 3118 3118 3118 3118 3118 3117 3117 3117 3116 3116 3116 3115 3115 3114 3113 3112 3111 3111 3110 3110 3109 3108 3108 3107 3106 3106 3105 3104 3104 3103 3102 3101
3108 3108 3108 3108 3108 3108 3108 3108 3108 3107 3107 3107 3107 3107 3107 3108 3108 3109 3109 3110 3111 3111 3112 3112 3112 3112 3113 3113 3113 3114 3114 3114 3115 3115 3115 3115 3115 3115 3115 3115 3115 3115 3115 3114 3114 3113 3113 3112 3112 3111 3111 3110 3109 3109 3108 3107 3107 3106 3106 3105 3105 3104 3103 3102 3102 3101 3101 3100 3099
3106 3106 3106 3106 3106 3106 3106 3106 3106 3106 3106 3106 3106 3106 3106 3106 3106 3106 3106 3107 3108 3108 3108 3108 3109 3109 3109 3110 3110 3111 3111 3111 3112 3112 3112 3112 3112 3112 3112 3112 3112 3112 3111 3111 3111 3110 3110 3109 3109 3108 3108 3107 3106 3106 3105 3105 3104 3103 3103 3102 3102 3101 3101 3100 3100 3099 3098 3097 3096
3102 3103 3103 3104 3104 3104 3104 3104 3104 3104 3104 3104 3104 3104 3104 3104 3104 3104 3104 3104 3104 3104 3105 3105 3105 3106 3106 3106 3106 3107 3107 3108 3108 3109 3109 3109 3109 3109 3109 3109 3109 3109 3109 3108 3108 3107 3107 3106 3106 3105 3105 3104 3103 3103 3102 3102 3101 3101 3100 3100 3099 3099 3098 3097 3097 3096 3096 3095 3094
3100 3100 3101 3101 3101 3101 3101 3101 3101 3101 3102 3102 3102 3102 3102 3102 3102 3102 3101 3101 3101 3101 3101 3101 3101 3101 3102 3102 3103 3103 3104 3104 3105 3106 3106 3106 3106 3106 3106 3106 3106 3106 3106 3105 3105 3104 3104 3103 3103 3102 3101 3101 3101 3100 3099 3099 3098 3098 3097 3097 3096 3096 3095 3095 3094 3094 3093 3092 3091
3097 3097 3098 3098 3098 3098 3099 3099 3099 3099 3099 3099 3099 3100 3100 3100 3100 3100 3100 3099 3098 3098 3098 3098 3098 3099 3099 3100 3100 3101 3101 3102 3102 3103 3103 3103 3103 3103 3103 3103 3103 3103 3103 3102 3102 3101 3101 3100 3100 3099 3099 3098 3098 3097 3097 3096 3096 3095 3094 3094 3094 3093 3093 3092 3092 3091 3091 3090 3089
3095 3095 3095 3095 3095 3096 3096 3096 3096 3096 3096 3096 3096 3096 3097 3097 3097 3097 3097 3097 3097 3097 3096 3097 3097 3097 3097 3098 3098 3099 3099 3100 3100 3100 3101 3101 3101 3101 3101 3101 3101 3100 3100 3099 3099 3098 3098 3097 3097 3096 3096 3096 3095 3095 3094 3093 3093 3092 3092 3091 3091 3091 3090 3090 3089 3089 3088 3087 3086
3093 3092 3092 3092 3093 3093 3093 3093 3093 3093 3093 3093 3093 3093 3093 3094 3094 3095 3095 3095 3095 3095 3095 3095 3095 3095 3096 3096 3096 3096 3096 3096 3097 3097 3098 3098 3098 3098 3098 3098 3098 3097 3097 3096 3096 3096 3095 3095 3094 3094 3093 3093 3092 3092 3091 3091 3090 3089 3089 3089 3088 3088 3087 3087 3086 3086 3085 3085 3084
3090 3090 3090 3090 3090 3090 3090 3090 3090 3090 3090 3089 3089 3090 3090 3091 3091 3092 3092 3092 3092 3092 3092 3092 3092 3092 3092 3092 3093 3093 3094 3094 3095 3095 3095 3095 3095 3095 3095 3095 3095 3095 3094 3094 3093 3093 3092 3092 3092 3091 3091 3090 3090 3089 3089 3088 3087 3087 3086 3086 3085 3085 3084 3084 3083 3083 3082 3082 3081
3088 3088 3088 3087 3087 3087 3087 3086 3086 3086 3086 3086 3086 3086 3087 3088 3088 3089 3089 3089 3089 3089 3090 3090 3090 3090 3090 3090 3090 3091 3091 3091 3092 3092 3092 3092 3092 3092 3092 3092 3092 3092 3091 3091 3090 3090 3090 3089 3089 3089 3088 3088 3087 3086 3086 3086 3085 3084 3084 3083 3083 3082 3081 3081 3081 3080 3080 3079 3079
3085 3085 3085 3085 3085 3084 3084 3084 3084 3083 3083 3083 3083 3084 3085 3085 3086 3086 3086 3086 3086 3086 3086 3086 3087 3087 3087 3087 3088 3088 3089 3089 3090 3090 3090 3090 3090 3090 3090 3089 3089 3089 3089 3088 3088 3087 3087 3086 3086 3086 3086 3085 3085 3084 3083 3083 3082 3082 3081 3081 3080 3079 3079 3078 3078 3077 3077 3076 3076
3082 3082 3082 3082 3081 3081 3081 3081 3081 3081 3080 3081 3081 3081 3082 3082 3083 3083 3083 3083 3083 3083 3083 3084 3084 3084 3085 3085 3086 3086 3086 3087 3087 3087 3087 3087 3087 3087 3087 3086 3086 3086 3086 3086 3085 3085 3084 3084 3084 3083 3083 3082 3082 3081 3081 3080 3080 3079 3079 3078 3077 3077 3076 3076 3075 3075 3074 3074 3073
3080 3079 3079 3079 3078 3078 3078 3078 3078 3078 3078 3078 3078 3079 3079 3079 3080 3080 3080 3080 3080 3080 3081 3081 3081 3082 3082 3082 3083 3083 3084 3084 3084 3084 3084 3084 3084 3084 3084 3084 3084 3083 3083 3083 3082 3082 3082 3081 3081 3081 3080 3080 3079 3079 3078 3078 3077 3076 3076 3076 3075 3074 3074 3073 3072 3072 3071 3071 3071
3077 3077 3076 3076 3076 3075 3075 3075 3075 3075 3075 3076 3076 3076 3076 3076 3076 3077 3077 3077 3077 3077 3078 3078 3078 3079 3079 3080 3080 3080 3081 3081 3081 3081 3081 3081 3081 3081 3081 3081 3081 3081 3080 3080 3080 3079 3079 3079 3078 3078 3077 3077 3076 3076 3076 3075 3074 3074 3073 3073 3072 3071 3071 3071 3070 3069 3069 3068 3068
3075 3074 3074 3073 3073 3072 3072 3072 3072 3072 3073 3073 3073 3074 3074 3074 3074 3074 3074 3074 3074 3075 3075 3075 3076 3076 3076 3077 3077 3077 3078 3078 3078 3078 3078 3078 3078 3078 3078 3078 3078 3078 3078 3077 3077 3077 3076 3076 3075 3075 3075 3074 3074 3073 3073 3072 3072 3071 3071 3070 3070 3069 3068 3068 3067 3067 3066 3066 3065
3072 3072 3071 3071 3070 3070 3070 3070 3070 3070 3071 3071 3071 3071 3071 3071 3071 3071 3071 3071 3071 3072 3072 3072 3073 3073 3074 3074 3074 3075 3075 3075 3076 3076 3076 3076 3076 3076 3076 3076 3076 3075 3075 3075 3075 3074 3074 3073 3073 3072 3072 3071 3071 3070 3070 3069 3069 3068 3068 3067 3067 3066 3066 3065 3065 3064 3064 3063 3063
3069 3069 3069 3068 3068 3068 3067 3067 3068 3068 3068 3068 3068 3068 3068 3068 3068 3068 3068 3068 3069 3069 3069 3069 3070 3070 3071 3071 3071 3072 3072 3072 3073 3073 3073 3073 3073 3073 3073 3073 3073 3073 3073 3072 3072 3071 3071 3071 3070 3070 3069 3069 3068 3067 3067 3067 3066 3066 3065 3065 3064 3064 3063 3063 3062 3062 3061 3061 3060
3066 3066 3066 3066 3065 3065 3065 3065 3065 3065 3066 3066 3066 3066 3066 3066 3066 3066 3066 3066 3066 3066 3066 3067 3067 3068 3068 3069 3069 3069 3070 3070 3070 3071 3071 3071 3071 3071 3071 3071 3071 3070 3070 3070 3069 3069 3068 3068 3067 3067 3066 3066 3065 3065 3064 3064 3064 3063 3063 3062 3062 3061 3061 3060 3060 3059 3059 3058 3057
3064 3063 3063 3063 3063 3062 3062 3062 3062 3063 3063 3063 3063 3063 3063 3063 3063 3063 3063 3063 3063 3063 3064 3064 3065 3065 3066 3066 3066 3067 3067 3067 3068 3068 3068 3068 3068 3068 3068 3068 3068 3068 3067 3067 3066 3066 3066 3065 3065 3064 3064 3063 3063 3062 3062 3061 3061 3061 3060 3060 3059 3059 3058 3058 3057 3057 3056 3056 3055
3061 3061 3060 3060 3060 3060 3060 3060 3060 3060 3060 3060 3060 3060 3060 3060 3060 3060 3060 3060 3060 3061 3061 3061 3062 3062 3063 3064 3064 3064 3065 3065 3066 3066 3066 3066 3066 3066 3066 3066 3065 3065 3065 3064 3064 3063 3063 3063 3062 3062 3061 3061 3061 3060 3060 3059 3059 3058 3058 3057 3056 3056 3056 3055 3055 3054 3054 3053 3052
3058 3058 3057 3057 3057 3057 3057 3057 3057 3057 3057 3057 3057 3057 3057 3057 3057 3057 3057 3057 3058 3058 3058 3059 3059 3060 3061 3061 3061 3062 3062 3063 3063 3063 3063 3063 3063 3063 3063 3063 3063 3062 3062 3061 3061 3061 3061 3060 3060 3059 3059 3058 3058 3058 3057 3057 3056 3056 3055 3055 3054 3054 3053 3052 3052 3051 3051 3051 3050
3055 3055 3055 3055 3054 3054 3054 3054 3055 3054 3054 3054 3054 3054 3054 3054 3054 3054 3055 3055 3055 3056 3056 3056 3057 3058 3058 3059 3059 3059 3060 3060 3061 3061 3061 3061 3061 3061 3061 3060 3060 3060 3059 3059 3059 3058 3058 3058 3057 3056 3056 3056 3056 3055 3055 3054 3054 3053 3053 3052 3051 3051 3051 3050 3050 3049 3048 3048 3048
3052 3052 3052 3052 3052 3052 3052 3052 3052 3052 3051 3051 3051 3051 3051 3051 3051 3052 3052 3052 3052 3053 3053 3054 3055 3055 3056 3056 3056 3057 3057 3058 3058 3058 3058 3058 3058 3058 3058 3057 3057 3057 3057 3056 3056 3056 3056 3055 3055 3054 3054 3053 3053 3052 3052 3052 3051 3051 3050 3050 3049 3049 3048 3047 3047 3046 3046 3045 3045
3049 3049 3049 3049 3049 3049 3049 3049 3049 3049 3049 3049 3049 3048 3048 3049 3049 3049 3049 3050 3050 3050 3051 3051 3052 3053 3053 3054 3054 3055 3055 3055 3055 3056 3056 3056 3056 3055 3055 3055 3055 3055 3054 3054 3054 3053 3053 3053 3052 3051 3051 3051 3050 3050 3050 3049 3049 3048 3047 3047 3046 3046 3045 3045 3044 3044 3043 3043 3042
3046 3046 3046 3046 3046 3046 3046 3046 3046 3046 3046 3046 3046 3046 3046 3046 3046 3047 3047 3047 3047 3048 3048 3049 3050 3050 3051 3051 3052 3052 3052 3052 3053 3053 3053 3053 3053 3053 3052 3052 3052 3052 3052 3051 3051 3051 3051 3050 3050 3049 3048 3048 3047 3047 3047 3046 3046 3046 3045 3044 3044 3043 3043 3042 3041 3041 3041 3040 3040
3043 3043 3043 3043 3043 3043 3043 3043 3043 3043 3043 3043 3043 3043 3043 3044 3044 3044 3045 3045 3045 3046 3046 3046 3047 3048 3048 3049 3049 3050 3050 3050 3050 3050 3050 3050 3050 3050 3050 3050 3050 3050 3049 3049 3049 3048 3048 3047 3047 3046 3046 3046 3045 3045 3044 3044 3043 3043 3042 3042 3041 3041 3040 3039 3039 3038 3038 3037 3037
3040 3040 3040 3040 3040 3040 3041 3041 3040 3040 3040 3040 3040 3041 3041 3041 3041 3042 3042 3042 3043 3043 3044 3044 3045 3045 3046 3046 3046 3047 3047 3047 3047 3048 3048 3048 3048 3047 3047 3047 3047 3047 3047 3046 3046 3046 3046 3045 3044 3044 3043 3043 3042 3042 3041 3041 3041 3040 3040 3039 3038 3038 3037 3037 3036 3036 3035 3035 3034
3037 3037 3037 3037 3037 3037 3037 3037 3037 3037 3037 3037 3037 3038 3038 3039 3039 3039 3040 3040 3040 3041 3041 3041 3042 3042 3043 3044 3044 3044 3045 3045 3045 3045 3045 3045 3045 3045 3045 3045 3045 3045 3044 3044 3044 3043 3043 3042 3042 3041 3041 3041 3040 3039 3039 3038 3038 3037 3037 3036 3036 3035 3035 3034 3034 3033 3032 3032 3031
3034 3034 3034 3034 3034 3034 3034 3035 3035 3035 3035 3035 3035 3035 3036 3036 3036 3037 3037 3037 3038 3038 3038 3039 3040 3040 3041 3041 3042 3042 3042 3042 3042 3042 3043 3043 3043 3042 3042 3042 3042 3042 3042 3041 3041 3041 3040 3040 3039 3039 3038 3038 3037 3037 3036 3036 3035 3035 3034 3034 3033 3032 3032 3031 3031 3030 3030 3029 3029
3031 3031 3030 3031 3031 3031 3031 3031 3032 3032 3032 3032 3032 3033 3033 3033 3034 3034 3035 3035 3035 3036 3036 3036 3037 3038 3038 3039 3039 3039 3040 3040 3040 3040 3040 3040 3040 3040 3040 3039 3040 3040 3039 3039 3039 3038 3038 3037 3037 3036 3036 3035 3035 3034 3034 3033 3033 3032 3031 3031 3030 3030 3029 3029 3028 3028 3027 3026 3026
3028 3027 3027 3027 3027 3028 3028 3029 3029 3029 3029 3030 3030 3030 3031 3031 3031 3031 3032 3032 3032 3033 3034 3034 3035 3035 3036 3036 3036 3037 3037 3037 3037 3037 3037 3037 3037 3037 3037 3037 3037 3037 3037 3037 3036 3036 3036 3035 3034 3034 3033 3033 3032 3032 3031 3031 3030 3030 3029 3028 3028 3027 3027 3026 3026 3025 3024 3024 3023
3025 3024 3024 3024 3025 3025 3025 3026 3026 3026 3026 3027 3027 3027 3027 3028 3028 3028 3029 3029 3030 3030 3031 3032 3032 3033 3033 3034 3034 3034 3035 3035 3035 3035 3035 3035 3035 3035 3035 3035 3035 3035 3035 3035 3034 3034 3033 3032 3032 3031 3031 3031 3030 3029 3029 3028 3028 3027 3026 3026 3025 3025 3024 3024 3023 3022 3022 3021 3021
3022 3021 3021 3021 3022 3022 3022 3023 3023 3023 3024 3024 3024 3024 3025 3025 3025 3026 3026 3027 3027 3028 3028 3029 3030 3030 3031 3031 3031 3032 3032 3032 3033 3033 3033 3032 3032 3032 3032 3032 3032 3032 3032 3032 3032 3031 3031 3030 3030 3029 3029 3028 3028 3027 3026 3026 3025 3024 3024 3023 3022 3022 3021 3021 3021 3020 3020 3019 3019
3019 3019 3019 3019 3019 3019 3019 3020 3020 3021 3021 3021 3021 3021 3022 3022 3022 3023 3023 3024 3024 3025 3026 3026 3027 3028 3028 3029 3029 3029 3030 3030 3030 3030 3030 3030 3030 3030 3030 3030 3030 3030 3030 3030 3030 3029 3029 3028 3027 3027 3026 3026 3025 3025 3024 3023 3023 3022 3021 3021 3020 3020 3019 3019 3018 3018 3017 3017 3016
3016 3016 3016 3016 3016 3016 3016 3017 3017 3017 3018 3018 3018 3019 3019 3020 3020 3020 3021 3021 3022 3022 3023 3024 3025 3025 3026 3026 3026 3027 3027 3027 3028 3028 3028 3028 3028 3028 3028 3028 3028 3028 3028 3028 3027 3027 3026 3026 3025 3025 3024 3023 3023 3022 3021 3021 3020 3020 3019 3018 3018 3017 3017 3016 3016 3016 3016 3015 3015